User: anonymous   Login
Location: Lawrence Hall of Science
(37.8785°N, 122.2415°W)
Time: 16:05:57
(UTC-07:00)
Language:

Cosmos 2098 Rocket - Orbit

View from above orbital plane
View from above orbital plane
View from above satellite
View from above satellite

Ground track
Ground track

The orbit data is extracted from the following two-line orbital elements,

1 20775U 90078B   16125.80424548  .00003991  00000-0  20078-3 0  9997
2 20775  82.9334  22.3161 0599666 157.9105 204.9147 14.28148988290423
Epoch (UTC): 04 May 2016 19:18:06
Eccentricity: 0.0599666
inclination: 82.9334°
perigee height: 367 km
apogee height: 1228 km
right ascension of ascending node: 22.3161°
argument of perigee: 157.9105°
revolutions per day: 14.28148988
mean anomaly at epoch: 204.9147°
orbit number at epoch: 29042

The dashed part of the orbit path shows where the satellite is in the earth's shadow,  

DLR